RH
2 2 2 2 2 2 2 2 2 2 2 2 2 2 2 2 2 3 3 3 3 4 4 5 7 8 9 11 12 13 14 15 15 15 15 15 15 14 14 14 13 12 12 13 15 17 20 22 24 26 28 29 30 30 30 28 26 25 23 22 21 21 22 24 25 27 28 29 29 29 29 29 28 28 27 27 27 28 28 29 30 30 31 32 33 34
2 2 2 2 2 2 2 2 2 2 2 2 2 2 2 2 2 3 3 3 4 4 5 6 7 9 10 12 13 14 15 15 16 15 15 15 15 15 15 14 13 12 12 13 15 18 20 22 25 26 28 29 30 30 30 28 26 24 22 21 20 19 20 22 24 25 26 27 27 27 27 27 26 26 26 26 27 28 30 31 32 34 35 36 37 37
2 2 2 2 2 2 2 2 2 2 2 2 2 2 2 2 3 3 3 4 4 5 5 6 8 9 11 12 14 15 16 16 16 15 15 15 15 15 15 14 14 13 12 13 15 18 20 23 25 26 28 29 30 30 30 28 26 24 22 20 19 18 19 20 22 23 24 25 25 25 25 25 25 25 26 28 30 32 34 36 38 39 41 42 43 42
2 2 2 2 2 2 2 2 2 2 2 2 2 2 2 2 3 3 3 4 4 5 6 7 8 10 11 13 15 16 16 16 16 16 15 15 15 15 15 15 14 13 12 13 14 17 19 22 24 26 28 29 30 30 30 29 27 25 22 20 18 18 18 18 20 21 22 23 23 23 23 24 25 27 30 32 35 38 41 43 45 46 48 48 50 49
2 2 2 2 2 2 2 2 2 2 2 2 2 2 2 3 3 3 4 4 5 6 7 8 9 10 12 14 16 17 17 17 17 16 15 15 15 16 16 15 14 13 12 12 14 16 18 21 23 25 27 28 30 30 30 29 27 25 23 20 19 17 17 17 18 19 20 20 21 22 23 25 28 31 35 38 42 44 47 49 51 52 53 53 54 54
2 2 2 2 2 2 2 2 2 2 2 2 2 2 3 3 3 3 4 4 5 6 8 9 10 12 13 15 16 18 18 18 17 17 16 16 16 16 16 15 14 13 11 12 13 15 17 19 21 23 25 27 28 29 30 29 28 26 24 21 19 18 17 17 17 18 18 19 21 23 25 28 32 36 41 44 47 50 52 54 55 56 56 56 55 54
2 2 2 2 2 2 2 2 2 2 2 2 2 2 3 3 4 4 4 4 5 6 8 10 11 13 14 15 17 18 19 18 18 18 17 17 17 17 17 16 14 13 12 11 12 13 15 17 19 21 23 25 27 28 29 29 28 27 25 22 20 18 17 16 16 17 18 20 22 25 28 33 37 42 46 49 51 54 56 57 58 58 58 56 55 52
3 3 3 3 2 2 2 2 2 2 2 2 2 2 3 3 4 4 5 5 6 6 7 9 11 13 15 16 17 18 19 19 19 18 18 18 18 18 17 16 14 13 12 11 11 12 13 15 17 19 21 23 25 26 28 28 28 27 26 23 21 19 18 17 16 17 18 21 24 28 33 38 42 46 50 52 54 56 58 59 60 59 58 56 54 52
3 3 3 3 2 2 2 2 2 2 2 2 2 2 2 3 3 4 5 6 7 7 8 9 10 11 14 16 18 19 19 20 20 20 20 20 19 19 17 16 15 13 13 11 11 10 11 12 14 16 18 20 22 24 26 27 27 27 26 25 23 20 18 18 17 18 20 23 27 32 37 42 47 50 53 55 57 58 60 60 60 60 58 56 54 52
3 3 3 3 3 2 2 2 2 2 2 2 2 2 2 3 3 3 4 5 6 8 9 10 10 11 12 15 17 19 20 21 22 22 22 22 21 20 18 16 15 13 13 12 11 10 10 10 11 13 15 17 19 21 23 25 26 27 27 26 24 22 20 19 18 19 22 26 31 36 42 47 51 54 56 57 58 59 60 61 60 60 58 56 54 52
3 3 3 3 3 3 2 2 2 2 2 2 2 2 2 2 2 3 3 3 5 7 9 11 12 12 12 14 16 18 20 22 23 24 25 24 24 22 19 17 15 14 13 13 12 11 10 10 10 10 12 13 16 18 20 23 25 26 27 26 25 23 22 20 20 21 24 28 34 40 46 51 54 56 58 59 60 61 61 61 61 60 59 57 55 54
3 3 3 3 3 3 3 2 2 2 2 2 2 2 2 2 2 3 3 3 4 5 7 10 12 14 14 15 16 18 20 23 25 26 27 27 26 24 21 18 16 14 13 13 13 13 12 10 9 9 9 11 13 15 17 20 23 25 26 26 26 25 23 22 22 23 25 30 36 42 48 53 56 59 60 61 62 62 63 62 62 61 60 59 57 55
3 3 3 3 3 3 3 2 2 2 2 2 2 2 2 2 2 2 3 4 5 6 7 9 12 14 15 16 17 19 21 23 26 28 29 29 28 26 24 20 18 16 14 13 13 13 13 11 10 9 8 9 10 12 15 17 20 23 25 26 26 26 25 24 24 25 27 31 37 43 50 55 58 60 62 62 63 64 64 64 63 63 62 60 59 58
3 3 3 3 3 3 3 2 2 2 2 2 2 2 2 2 2 2 3 4 4 5 6 8 11 14 15 15 16 18 21 24 27 29 32 32 31 29 26 23 20 17 15 14 14 14 14 13 11 9 8 8 9 10 12 15 18 21 24 26 27 27 27 26 26 27 28 32 38 44 51 55 59 61 63 64 64 65 66 66 65 65 64 63 61 60
3 3 3 3 3 3 3 2 2 2 2 2 2 2 2 2 2 3 3 3 4 5 5 6 9 12 15 15 16 18 21 24 27 30 32 33 33 31 29 26 23 20 17 15 14 14 14 14 12 10 9 8 8 9 10 13 16 19 22 25 26 27 28 28 28 29 30 34 39 44 50 55 59 62 63 64 65 66 67 67 67 67 66 65 64 63
3 3 3 3 3 3 3 2 2 2 2 2 2 2 2 2 2 3 3 3 4 4 5 4 5 8 11 14 16 18 20 24 27 30 32 34 34 33 32 30 26 23 19 16 14 14 14 14 13 11 10 8 8 8 9 11 14 17 21 24 26 28 29 29 30 31 33 35 39 44 49 54 58 61 63 65 66 67 68 68 69 68 68 68 67 66
3 3 3 3 3 3 3 2 2 2 2 2 2 2 2 2 3 3 3 4 4 5 5 5 5 6 7 11 14 18 21 24 27 30 32 35 35 35 35 33 30 26 21 18 15 14 14 14 14 13 11 10 9 8 8 10 12 16 19 23 26 28 30 31 32 33 35 37 40 44 48 53 57 60 63 64 66 67 68 69 69 69 69 69 68 68
3 3 3 3 3 3 2 2 2 2 2 2 2 2 2 2 3 3 4 4 5 5 6 6 7 8 8 10 13 17 20 24 27 30 33 35 37 37 37 35 33 29 24 20 17 15 14 14 14 14 13 11 10 9 9 10 12 15 19 22 26 28 30 32 33 34 36 38 41 44 48 51 55 59 61 63 65 66 67 68 69 69 69 69 69 68
3 3 3 3 3 3 2 2 2 2 2 2 2 2 2 2 3 3 4 5 6 7 7 8 8 9 11 13 15 18 21 25 28 30 33 36 38 38 38 38 35 32 28 23 19 16 14 14 14 14 14 13 12 11 10 10 12 14 18 21 25 27 29 31 33 35 36 39 41 44 47 50 53 56 59 61 63 64 66 67 68 68 69 69 69 68
3 3 3 3 3 3 2 2 2 2 2 2 2 2 2 2 2 3 4 5 6 8 9 10 10 12 13 15 17 19 22 25 28 31 34 36 38 39 39 39 38 35 31 26 22 18 15 14 14 14 15 15 14 13 12 11 12 13 16 19 22 25 27 29 31 33 35 37 39 42 45 48 51 53 56 58 60 62 63 65 66 67 68 68 68 69
3 3 3 3 3 3 2 2 2 2 2 2 2 2 2 2 2 3 4 5 7 8 10 11 13 15 16 18 19 21 23 26 28 31 34 36 37 38 39 41 40 38 34 29 24 20 16 14 13 14 14 15 15 15 14 13 13 13 14 16 18 20 22 24 25 27 29 31 34 37 40 43 46 49 51 54 56 58 60 62 63 64 66 67 68 69
3 3 3 3 3 3 3 2 2 2 2 2 2 2 2 2 2 3 4 6 8 10 11 14 16 18 19 20 21 23 25 28 30 32 33 35 36 38 39 41 42 41 37 32 27 23 18 15 14 13 13 14 15 15 15 15 15 14 14 14 15 15 16 17 18 19 20 22 24 27 30 33 36 40 43 47 50 52 55 57 59 61 63 65 66 68
3 3 3 3 3 3 3 3 2 2 2 2 2 2 2 2 2 3 5 7 8 10 13 16 19 21 23 23 23 24 26 28 30 32 33 35 36 37 39 40 42 43 40 35 30 26 22 18 15 14 13 13 14 15 15 16 16 16 15 15 15 14 14 14 14 14 14 15 16 17 19 21 24 26 30 34 37 41 45 49 52 55 58 61 64 67
4 3 3 3 3 3 3 3 3 2 2 2 2 2 2 2 3 4 5 7 9 11 14 18 20 22 23 23 23 24 26 27 29 30 32 34 36 38 39 40 42 43 43 39 35 30 26 22 19 17 14 13 13 13 14 15 15 16 16 16 16 16 15 15 15 14 14 14 14 14 14 14 15 17 18 20 23 26 30 35 39 44 49 54 59 63
4 3 3 3 3 3 3 3 3 3 2 2 2 2 2 2 3 5 7 8 10 12 15 17 19 20 20 20 21 22 24 26 27 28 30 33 36 38 39 40 41 42 44 43 40 36 32 28 25 22 19 17 15 14 13 13 14 14 15 15 16 16 16 17 17 16 16 16 16 16 15 15 15 15 15 15 16 17 19 22 25 29 35 41 47 54
4 4 3 3 3 3 3 3 3 3 3 2 2 2 2 2 3 5 7 8 9 10 13 15 17 18 19 20 20 21 22 24 26 27 29 32 35 38 39 40 41 42 43 44 44 42 39 35 32 30 27 24 21 18 16 15 14 14 14 14 14 15 16 16 16 17 17 17 18 18 18 18 18 18 17 17 17 17 17 17 18 20 23 27 33 40
4 4 3 3 3 3 3 3 3 3 3 2 2 2 2 2 3 4 5 6 8 9 11 13 15 17 18 20 21 21 22 24 26 27 29 33 36 38 40 41 41 41 42 43 45 45 44 42 40 37 35 33 30 26 23 21 18 16 15 14 14 14 14 15 15 16 17 17 18 18 18 18 19 19 19 19 19 19 19 19 18 18 18 20 23 27
4 4 4 3 3 3 3 3 3 3 3 3 2 2 2 2 2 3 4 6 7 9 12 13 14 15 17 19 21 23 23 25 27 29 31 34 36 39 41 42 42 42 41 42 44 45 46 45 44 43 42 40 38 35 33 29 26 23 20 18 17 16 15 15 15 15 15 16 17 17 18 18 19 19 20 20 20 21 21 21 21 20 20 19 19 21
4 4 4 4 3 3 3 3 3 3 3 3 2 2 2 2 2 3 4 5 7 9 12 13 14 16 17 19 22 23 25 27 29 31 32 35 37 40 41 43 43 43 42 41 41 43 46 46 46 46 46 45 43 42 40 38 35 33 30 26 24 21 19 17 16 16 15 16 16 17 17 18 19 19 20 21 22 22 23 23 23 23 22 21 20 20
4 4 4 4 3 3 3 3 3 3 3 3 2 2 2 2 2 2 3 4 6 9 12 13 15 17 18 19 21 23 26 29 31 33 34 36 38 40 41 43 44 44 43 42 41 41 43 45 47 48 48 47 46 45 44 43 42 41 39 36 33 30 27 24 21 19 18 17 17 17 17 18 19 20 21 22 23 24 25 25 25 25 24 23 22 22
4 4 4 4 4 3 3 3 3 3 3 3 2 2 2 2 2 2 3 4 6 9 12 14 16 18 20 20 22 24 26 30 33 35 36 37 39 41 42 43 44 45 46 45 44 42 42 43 46 48 49 48 48 47 46 45 45 44 44 42 41 38 35 32 28 25 22 20 18 18 18 18 19 20 21 23 24 26 27 27 27 27 26 25 24 24
4 4 4 4 4 4 3 3 3 3 3 3 2 2 2 2 2 2 3 4 6 8 11 15 18 20 23 24 26 27 29 31 34 36 37 38 39 41 42 43 44 46 47 48 47 47 45 44 45 48 50 50 49 49 48 47 46 46 45 45 44 42 40 38 34 31 27 24 21 19 18 18 19 21 22 24 26 28 30 30 30 29 27 26 26 26
4 4 4 4 4 4 3 3 3 3 3 3 2 2 2 2 2 2 3 5 6 8 10 14 18 21 24 27 29 31 32 34 35 36 37 38 39 40 42 43 44 46 47 48 48 49 48 47 47 48 50 51 51 51 50 49 48 48 47 46 45 44 42 40 37 34 30 26 23 21 19 19 19 21 23 26 28 30 32 33 32 32 30 30 29 30
4 4 4 4 4 4 4 3 3 3 3 3 2 2 2 2 2 2 4 5 7 9 11 14 18 21 24 26 29 32 34 35 36 36 37 38 39 40 42 43 45 46 46 47 48 48 49 49 49 49 50 51 52 52 51 51 50 50 49 47 46 45 43 41 38 35 32 28 25 22 20 19 19 20 23 26 29 32 35 35 36 35 35 35 35 36
4 4 4 4 4 4 4 4 3 3 3 3 2 2 2 2 2 2 4 5 7 10 13 16 19 22 24 26 29 31 33 34 35 36 37 38 39 41 43 45 46 46 47 47 48 48 48 49 50 51 51 51 51 52 52 52 51 51 50 49 47 46 44 42 39 36 33 29 26 22 20 19 19 20 22 26 30 34 37 38 39 40 41 42 43 44
4 4 4 4 4 4 4 4 3 3 3 2 2 2 2 2 2 2 3 5 7 10 13 16 20 23 26 28 30 31 33 33 34 35 37 39 40 42 44 46 47 48 48 49 49 49 49 50 50 51 51 51 51 51 51 51 51 51 51 50 49 47 45 43 40 37 34 30 26 23 20 19 19 20 23 26 30 34 38 41 43 45 47 49 51 53
5 4 4 4 4 4 4 4 3 3 3 2 2 2 2 2 2 2 3 5 7 10 13 17 20 24 27 30 32 33 33 33 34 35 37 39 42 44 46 48 49 50 50 51 51 50 50 50 50 51 51 52 52 51 51 50 50 50 50 50 49 48 46 43 41 38 34 30 26 23 21 20 20 21 23 26 30 34 39 43 46 49 52 55 58 60
5 4 4 4 4 4 4 4 3 3 3 2 2 2 2 2 2 2 3 4 6 9 12 16 20 24 28 31 32 33 33 33 34 35 37 40 43 46 48 50 51 51 52 52 52 52 52 51 51 51 51 52 52 52 52 51 49 49 48 49 49 48 46 44 41 38 34 30 26 23 21 21 21 23 24 27 30 34 38 42 46 50 54 57 61 63
5 5 4 4 4 4 4 4 3 3 3 3 2 2 2 2 2 2 3 4 6 9 12 16 19 23 27 30 32 33 33 33 34 35 37 40 44 47 50 51 52 53 53 54 54 54 53 54 53 53 52 52 52 52 52 51 50 49 48 47 47 47 46 44 41 37 33 29 26 23 21 22 23 24 26 28 30 33 37 41 45 49 52 55 59 62
5 5 4 4 4 4 4 4 3 3 3 3 2 2 2 2 2 2 3 4 6 9 12 16 20 24 27 29 30 31 32 32 33 34 36 40 44 48 51 53 54 54 54 54 54 54 54 55 55 54 54 53 53 53 52 52 51 49 48 47 47 46 45 43 40 36 32 28 25 23 22 23 25 26 28 29 31 33 36 39 43 46 49 52 54 56
5 5 5 4 4 4 4 4 3 3 3 3 2 2 2 2 2 2 2 4 6 8 11 15 19 23 27 28 29 30 30 31 32 33 35 40 44 48 52 54 55 55 55 55 55 55 55 55 55 55 54 54 53 53 52 52 51 50 49 48 47 46 45 43 39 35 30 27 24 23 23 25 27 28 30 31 32 34 36 39 41 44 46 48 50 51
5 5 5 4 4 4 4 4 3 3 3 3 2 2 2 2 1 1 2 2 4 6 9 12 16 20 24 27 28 29 29 29 30 32 35 39 44 49 53 55 56 57 56 56 55 56 56 56 56 56 55 54 53 52 51 51 51 50 50 50 48 46 44 41 37 33 28 26 25 25 26 28 29 31 32 32 33 34 36 38 40 42 44 45 46 47
5 5 5 4 4 4 4 4 3 3 3 3 2 2 2 2 2 2 2 2 3 5 7 10 14 17 20 23 25 27 27 28 29 32 35 39 44 49 53 55 57 58 58 57 56 56 56 57 57 57 56 55 54 52 51 50 50 50 51 51 49 46 42 38 34 30 27 26 26 27 29 31 33 34 34 34 35 35 36 38 39 41 42 43 44 45
5 5 5 4 4 4 4 4 3 3 3 3 2 2 2 2 2 2 2 3 4 5 7 10 13 16 19 21 23 24 25 27 29 32 36 40 45 49 52 55 57 58 60 60 59 57 56 56 56 57 56 55 54 52 51 50 50 50 51 51 50 47 43 37 32 28 26 27 29 31 34 35 36 36 37 37 37 37 38 39 40 41 43 44 45 46
5 5 5 5 4 4 4 4 3 3 3 3 3 2 2 2 2 2 2 3 4 6 8 10 12 15 17 19 20 22 23 26 29 33 37 42 45 49 51 53 55 58 60 62 62 61 59 57 56 56 55 54 53 52 51 50 50 50 51 50 49 45 41 35 31 28 28 30 33 36 39 40 40 41 41 41 41 41 41 42 43 45 47 48 50 51
5 5 5 5 4 4 4 4 3 3 3 3 3 2 2 2 2 3 3 4 5 7 8 10 12 14 16 18 19 20 22 25 29 34 38 42 45 48 50 52 54 57 59 62 64 65 64 61 58 56 54 53 52 51 51 51 51 50 50 49 46 42 37 33 30 29 31 35 38 42 44 44 45 46 46 47 47 47 48 49 50 52 55 57 59 60
6 6 5 5 5 4 4 4 3 3 3 3 3 3 2 2 3 3 3 4 6 7 9 11 13 15 17 18 19 21 23 26 30 35 39 42 45 47 49 51 53 55 58 61 64 66 67 65 61 58 54 52 51 51 50 51 51 51 50 47 43 39 34 31 30 31 34 39 43 46 49 49 50 51 52 54 55 56 57 59 61 63 65 67 68 68
6 6 6 5 5 4 4 4 4 3 3 3 3 3 3 3 3 3 4 5 6 8 10 12 14 15 17 18 20 23 26 29 33 37 40 42 44 45 47 48 50 53 56 58 61 63 66 66 64 60 56 53 51 50 50 50 51 51 49 46 41 36 32 30 31 34 38 42 47 50 53 54 55 57 58 60 62 64 66 69 71 72 73 74 73 73
6 6 6 5 5 5 4 4 4 3 3 3 3 3 3 3 3 3 4 5 7 8 10 12 14 16 18 19 22 25 29 33 36 39 41 43 43 44 45 46 48 50 52 54 56 59 61 64 65 62 58 55 52 51 50 50 50 50 48 44 39 35 31 31 33 36 41 45 49 53 56 58 60 61 62 64 66 69 72 74 76 77 78 77 76 75
7 6 6 6 5 5 4 4 4 4 3 3 3 3 3 3 3 4 5 6 7 9 11 12 14 16 18 21 25 28 32 36 39 41 42 43 44 44 45 45 46 47 48 50 52 53 55 60 63 64 61 58 55 53 51 50 49 48 46 43 38 33 30 32 35 39 43 47 51 54 57 60 62 64 65 66 68 70 73 76 78 79 80 79 78 77
7 7 6 6 5 5 5 4 4 4 3 3 3 3 3 3 3 4 5 6 7 9 11 13 15 17 20 24 28 32 35 38 40 42 43 44 45 45 46 46 47 47 48 48 49 50 51 54 58 61 63 61 58 55 53 51 49 46 44 41 36 32 30 33 37 41 45 48 52 55 58 60 63 65 67 67 68 70 71 74 76 79 80 80 79 79
Wind_Speed
36 37 38 39 41 42 43 44 44 45 46 47 47 47 48 49 49 49 49 49 48 47 47 46 45 43 42 41 40 39 38 38 37 37 36 36 36 36 36 36 36 37 37 36 35 35 34 33 32 31 31 30 29 29 28 28 28 28 27 27 26 25 25 23 22 21 20 19 18 18 17 17 17 17 16 16 16 15 15 14 14 13 12 10 9 7
36 38 39 40 41 42 43 44 44 45 46 47 47 47 48 48 48 48 48 48 47 46 45 44 43 42 41 40 40 39 38 38 37 37 36 36 35 35 35 35 35 35 34 34 33 33 32 32 31 31 30 30 29 29 28 28 28 28 28 27 26 25 24 23 22 21 20 19 19 18 18 17 17 16 16 15 15 14 14 13 12 11 10 9 8 6
37 38 39 41 41 42 43 44 45 45 45 46 47 47 47 47 47 47 47 47 46 46 45 44 43 42 41 40 39 39 38 38 37 37 36 36 35 34 34 34 33 33 32 32 31 31 31 30 30 30 30 29 29 28 28 28 28 28 28 27 27 26 24 23 22 21 20 19 19 18 18 17 17 16 15 15 14 13 12 11 10 9 8 8 7 5
37 39 40 41 42 42 43 43 44 45 45 46 46 47 47 47 47 46 46 45 45 44 44 43 42 41 40 40 39 38 38 38 37 37 36 36 35 34 34 33 33 32 31 30 29 29 29 29 29 29 29 29 28 28 28 28 28 28 28 27 27 26 24 23 22 21 20 19 19 18 18 17 16 15 14 13 12 12 11 10 9 8 7 6 6 5
38 39 41 41 42 43 43 44 44 44 45 45 45 45 46 46 46 46 45 44 44 43 42 42 41 41 40 39 39 38 37 37 37 37 36 36 35 34 34 33 32 31 30 29 28 28 27 28 28 28 28 28 28 27 27 27 27 28 28 27 27 26 24 23 22 21 20 19 19 18 17 16 15 14 13 12 11 10 9 9 8 7 6 6 6 5
39 40 41 42 42 43 43 44 44 44 44 44 44 44 44 44 45 45 44 44 43 42 41 41 40 40 39 39 38 37 37 36 36 36 36 35 35 34 34 33 33 32 30 29 28 27 26 27 27 27 27 27 27 27 27 27 27 27 27 27 27 26 24 23 22 20 20 19 18 17 16 15 14 13 12 11 10 9 9 8 7 7 6 6 6 6
39 40 41 41 42 43 43 43 44 44 44 44 44 43 43 43 43 43 42 42 42 42 41 40 39 38 38 37 37 36 36 36 36 36 35 35 35 35 34 34 33 33 31 30 28 27 26 26 26 26 26 26 26 26 26 26 27 27 27 27 27 26 24 23 21 20 19 18 17 16 15 14 13 12 11 10 10 9 8 8 7 7 7 7 7 7
39 40 41 41 42 43 43 43 43 43 44 44 43 43 43 43 42 41 41 40 41 41 40 40 39 38 37 36 35 35 35 35 36 36 36 35 35 35 35 35 34 33 32 31 29 28 26 26 25 25 25 25 25 25 25 26 26 26 27 27 26 26 24 23 21 20 19 18 17 16 14 13 12 11 11 10 10 9 9 8 8 8 8 8 8 8
39 40 41 41 41 42 43 43 43 43 43 43 43 43 43 43 42 41 40 39 39 39 39 39 39 39 37 35 34 34 34 35 35 36 36 36 36 36 36 35 35 34 33 32 31 29 27 26 25 25 25 25 25 25 25 25 25 26 26 26 26 25 24 23 21 19 18 17 16 15 14 13 12 11 11 10 10 10 9 9 9 9 9 9 9 10
39 39 40 41 41 41 42 42 43 43 43 43 43 43 42 42 42 42 41 40 39 39 38 38 38 38 38 36 34 33 33 34 35 35 36 36 36 36 36 36 36 35 34 33 32 30 29 27 26 25 25 24 24 24 24 24 25 25 25 26 26 25 24 23 21 20 18 16 15 14 13 12 12 11 11 11 11 11 11 10 10 10 10 10 10 11
39 39 40 40 41 42 42 42 42 42 43 43 43 43 42 42 41 41 41 41 40 39 38 38 37 37 37 37 35 34 33 33 34 35 36 36 36 35 36 36 35 35 34 33 32 31 30 28 27 25 25 24 24 24 24 24 24 24 25 25 25 25 24 23 22 20 18 16 15 14 13 12 12 12 11 11 12 12 12 12 12 12 12 12 12 12
38 39 39 40 41 41 42 42 42 42 42 42 42 43 43 43 42 42 41 41 40 40 39 38 38 37 36 36 35 34 33 33 34 34 35 36 35 35 35 35 35 35 34 33 33 32 31 29 28 26 25 24 24 24 24 23 23 24 24 24 25 25 24 23 22 20 18 16 15 14 13 13 12 12 12 12 12 13 13 13 13 13 14 14 14 14
38 39 39 40 40 41 41 42 42 42 42 42 42 43 43 43 43 43 42 41 40 40 39 38 37 37 36 36 35 34 33 33 33 34 35 35 35 35 34 34 35 35 34 33 33 32 31 30 29 27 26 25 24 24 23 23 23 23 23 24 24 24 24 23 22 21 19 17 15 14 14 13 13 13 13 13 14 14 14 14 15 15 15 16 16 16
38 39 39 40 40 41 41 42 42 42 42 43 43 43 43 43 43 43 42 41 41 40 39 38 36 36 36 36 36 35 34 33 32 33 33 34 35 35 34 34 35 35 34 34 33 32 32 31 29 28 26 25 24 24 23 23 23 23 23 23 23 23 23 23 22 21 19 18 16 15 14 14 14 14 14 15 15 15 15 16 16 17 17 17 18 18
38 38 39 39 40 41 41 42 42 42 43 43 44 44 44 44 43 42 42 41 40 40 39 38 37 35 35 35 35 35 35 34 33 32 33 33 34 34 34 34 34 34 34 34 33 32 32 31 30 28 27 26 25 24 23 23 23 22 22 22 23 23 23 23 22 21 20 18 17 16 15 15 15 15 16 16 16 16 17 17 18 18 19 19 20 20
38 38 39 39 40 41 41 42 42 42 43 43 44 44 43 43 43 43 42 41 41 40 39 39 38 37 36 35 35 34 35 34 33 33 33 33 34 34 34 34 34 34 34 33 33 32 32 31 30 29 27 26 25 24 24 23 23 22 22 22 22 22 22 22 22 21 20 19 18 17 16 16 16 16 17 17 17 18 18 19 19 20 21 21 22 22
38 38 39 40 40 41 41 42 42 42 43 43 43 43 42 42 42 42 41 41 41 40 40 39 39 38 37 36 36 35 35 35 34 33 33 33 33 34 34 34 34 34 33 33 32 32 31 31 30 29 28 27 26 25 24 23 23 22 22 22 22 22 22 22 22 21 20 19 19 18 17 17 17 18 18 18 19 19 19 20 21 21 22 23 23 24
37 38 39 40 40 41 41 42 43 43 43 43 43 42 42 42 41 41 40 40 40 40 40 40 39 39 38 37 37 37 36 35 35 34 33 33 33 33 33 33 33 33 33 33 32 32 31 30 30 29 29 28 27 26 25 24 23 22 22 21 21 21 21 21 21 21 20 20 19 19 18 18 18 19 19 19 20 20 21 21 22 22 23 24 25 25
37 38 39 40 41 41 42 42 43 43 43 43 42 42 42 41 41 40 40 40 39 39 39 39 39 39 38 38 37 37 37 36 35 34 34 33 33 33 32 32 32 33 33 33 32 31 31 30 30 29 29 28 28 27 26 24 23 22 22 21 21 21 21 21 21 20 20 20 20 20 19 19 19 20 20 20 21 21 22 22 23 23 24 25 25 26
37 38 39 40 41 42 42 42 43 43 43 43 42 42 41 41 40 40 39 39 39 38 38 38 38 38 38 38 37 37 37 36 36 35 34 33 33 32 32 32 32 32 32 32 32 31 30 30 29 29 29 28 28 27 26 25 24 23 22 21 21 21 20 20 20 20 20 20 20 20 20 20 20 20 21 21 22 22 22 23 23 24 24 25 26 27
38 38 39 40 41 41 42 42 42 42 42 43 42 42 42 41 40 40 39 39 38 38 38 38 38 38 38 38 37 37 37 37 36 35 34 33 32 31 31 31 31 31 32 32 32 31 30 30 29 29 29 28 28 27 26 26 25 24 23 22 21 21 21 20 20 20 20 20 20 20 20 20 21 21 21 22 22 23 23 24 24 24 25 26 26 27
38 39 40 40 41 41 41 42 42 42 42 42 42 42 42 42 41 41 40 39 39 38 38 37 37 37 37 37 37 36 36 36 35 35 34 32 31 31 30 30 30 30 31 31 31 31 30 30 29 29 28 28 27 27 26 26 25 25 24 23 22 22 21 21 21 21 21 21 21 21 21 21 21 21 22 22 23 23 24 24 25 25 25 26 26 27
38 39 40 40 40 41 41 41 41 41 41 41 41 42 42 41 41 41 40 40 39 38 37 36 36 35 35 35 35 35 35 34 34 34 33 32 31 31 30 29 29 29 30 30 31 30 30 29 29 29 28 28 27 27 26 26 26 25 25 25 24 23 23 23 22 22 22 22 22 22 22 22 22 22 23 23 23 24 24 25 25 26 26 26 27 27
38 39 39 40 40 40 41 41 41 41 42 42 42 42 42 41 41 40 40 39 38 37 36 35 34 34 34 34 33 33 33 33 33 33 32 32 31 31 30 29 28 28 29 29 30 30 30 29 29 29 28 28 27 27 27 27 27 26 26 26 26 25 25 24 24 24 24 24 24 24 24 24 24 24 24 24 25 25 25 26 26 26 27 27 27 27
38 38 39 39 40 40 41 41 42 42 42 42 42 42 42 42 41 40 39 39 38 36 35 34 33 32 33 33 32 32 32 32 32 33 32 32 31 31 31 30 29 28 28 28 29 29 29 29 29 29 28 28 28 28 28 28 28 27 27 27 27 26 26 26 26 25 25 25 25 25 25 26 26 26 26 26 26 26 27 27 27 27 27 27 27 27
38 38 39 40 40 41 42 42 43 43 43 43 43 42 42 41 40 39 38 37 37 36 35 34 33 32 32 32 32 32 32 32 32 33 33 32 32 32 31 30 29 28 27 27 28 28 28 28 28 28 29 29 29 29 29 28 28 28 28 27 27 27 26 26 26 26 26 26 26 27 27 27 27 28 28 28 28 28 28 28 28 28 28 28 28 27
38 39 39 40 41 41 42 43 43 43 43 43 43 42 41 41 39 38 37 36 36 36 35 35 34 34 33 33 33 33 33 33 33 33 33 33 33 33 32 31 30 29 27 27 27 27 28 28 28 28 29 29 29 29 29 28 28 28 28 27 27 27 26 26 26 26 26 26 27 27 27 28 28 29 29 30 30 30 30 30 30 29 29 28 28 27
38 39 40 40 41 42 42 43 43 43 43 43 42 42 41 40 39 38 37 37 36 36 35 35 35 35 35 34 34 34 34 34 34 33 33 33 33 33 33 32 31 30 28 27 26 26 27 28 28 29 29 29 29 28 28 28 28 27 27 27 27 26 26 26 26 26 26 26 26 27 27 28 28 29 30 30 31 31 31 31 30 30 29 28 28 27
38 39 40 41 41 42 42 42 43 42 42 42 42 41 41 40 38 37 37 37 36 36 36 36 36 36 36 35 35 35 35 35 35 34 34 34 34 34 33 33 33 32 30 28 26 25 26 28 29 29 29 29 29 28 28 27 27 27 27 26 26 26 26 26 25 25 25 25 25 26 26 27 28 29 30 30 31 31 31 31 31 30 29 28 27 26
38 39 40 40 41 41 42 42 42 42 42 42 42 41 41 40 39 38 37 37 36 36 36 36 36 37 37 37 37 36 36 36 36 35 35 35 34 34 34 34 34 33 33 31 28 26 26 26 28 29 29 29 29 29 28 28 28 27 27 26 26 26 25 25 25 25 25 25 25 25 26 27 27 28 29 30 30 31 31 31 30 29 28 26 25 24
38 39 39 40 41 41 41 42 42 42 42 42 41 41 40 40 39 38 38 37 37 36 36 36 36 36 37 38 38 38 38 37 37 37 36 35 35 35 35 34 34 34 34 34 33 31 29 28 28 28 29 30 30 30 30 29 29 28 28 27 27 26 26 25 25 24 24 24 24 25 25 26 27 28 29 29 30 30 30 30 29 28 26 25 23 22
38 39 39 40 40 41 41 41 41 42 41 41 41 41 40 40 39 38 37 37 37 36 36 35 35 35 36 36 37 38 38 38 38 37 37 36 35 35 35 34 34 34 34 34 34 34 33 31 30 29 30 30 30 30 30 30 30 30 29 29 28 27 27 26 25 25 24 24 24 25 25 26 27 28 29 29 29 29 29 29 28 27 25 23 22 20
38 39 39 40 40 40 41 41 41 41 41 41 41 40 40 39 38 38 37 36 36 36 36 35 35 35 35 35 35 36 37 37 37 37 37 36 35 35 35 34 34 34 34 33 33 34 34 33 32 31 30 30 30 31 31 31 31 31 31 30 30 29 28 27 27 26 25 25 25 25 26 26 27 28 28 29 29 28 28 27 26 25 24 22 20 19
38 38 39 39 40 40 40 40 41 41 40 40 40 40 39 39 38 37 36 35 35 35 35 35 35 35 34 34 34 35 35 36 37 37 37 36 36 35 35 35 35 34 34 33 33 33 33 33 33 32 31 31 30 30 30 31 31 31 31 31 31 31 30 29 28 28 27 27 27 27 27 27 28 28 28 28 28 27 27 26 25 23 22 21 20 18
37 38 38 39 39 39 40 40 40 40 40 40 39 39 39 38 37 36 35 34 34 33 33 33 34 34 34 34 35 35 35 36 36 36 37 37 36 36 36 36 35 35 35 34 34 33 33 33 33 33 32 31 30 30 30 30 30 30 31 31 31 31 31 31 30 30 29 29 29 29 29 29 29 29 29 28 27 26 25 24 23 22 21 20 19 19
37 38 38 38 39 39 39 39 40 40 39 39 39 38 38 38 37 35 34 33 32 32 32 32 32 32 33 34 34 35 35 35 36 37 37 37 37 36 36 36 36 36 36 35 35 34 34 33 33 33 33 32 31 30 30 30 30 29 30 30 31 31 31 32 31 31 31 31 31 31 31 31 31 30 29 28 27 26 25 23 22 21 20 19 19 18
37 37 38 38 38 39 39 39 39 39 39 39 39 38 38 37 36 35 34 33 31 31 30 30 31 31 32 33 33 34 35 35 36 37 37 37 37 37 36 36 36 36 36 36 36 35 35 34 34 33 33 33 32 32 31 30 30 29 29 29 30 30 31 31 32 32 32 32 32 32 32 32 32 31 30 28 27 25 23 22 21 19 18 18 18 18
37 37 37 38 39 39 39 39 39 39 39 39 39 38 38 37 36 35 34 33 31 30 29 29 30 30 31 32 32 33 34 35 36 36 37 37 37 36 36 36 36 36 36 36 36 36 36 36 35 34 33 33 32 32 32 32 31 30 29 29 29 29 30 31 31 31 32 32 32 32 33 33 32 32 30 29 27 24 23 21 19 18 17 16 16 17
36 37 37 38 39 39 39 40 40 40 40 39 39 39 38 37 36 35 34 32 31 29 28 28 28 29 30 30 31 32 33 34 35 35 36 36 36 36 36 35 35 35 35 35 36 36 36 36 36 36 35 34 33 32 32 32 32 31 30 29 28 29 29 30 30 31 31 32 32 32 32 32 32 31 30 29 27 25 23 20 19 17 16 15 15 15
36 37 37 38 39 39 40 40 40 40 40 40 40 39 39 37 36 35 33 31 30 29 28 27 27 27 28 29 30 31 32 33 33 34 35 35 35 35 35 35 35 35 35 35 35 36 36 36 36 35 35 34 34 33 32 32 32 32 31 30 29 29 29 29 30 30 31 31 31 31 31 31 31 31 30 29 27 25 23 21 19 18 17 16 15 15
36 37 38 38 39 39 40 40 40 40 40 40 40 39 38 37 36 35 33 32 30 28 27 26 26 26 26 27 29 30 31 32 32 33 34 34 34 35 35 34 34 34 34 34 35 35 36 36 36 35 35 35 34 33 33 33 32 32 32 31 30 30 29 29 29 29 30 30 30 31 31 31 30 29 29 28 27 26 24 22 21 19 18 18 17 17
36 37 38 38 39 39 40 40 40 40 40 40 40 39 38 37 36 35 34 32 31 29 28 27 26 26 26 27 28 29 30 31 31 32 33 33 34 34 34 34 34 34 34 34 34 35 35 36 36 35 35 35 34 34 33 33 33 33 33 32 31 30 29 28 28 28 28 29 29 30 30 29 29 28 28 27 26 26 24 23 22 21 20 20 19 19
37 37 38 38 39 39 39 40 40 40 40 40 39 39 38 38 37 36 35 33 32 31 29 28 27 26 26 26 27 28 28 29 30 31 32 33 33 33 33 33 33 33 33 34 34 35 35 35 35 35 35 35 35 34 34 34 34 34 34 33 33 32 30 29 28 28 27 28 28 28 28 28 28 27 27 26 26 25 24 23 22 22 22 21 21 21
37 37 38 38 39 39 39 39 39 39 39 39 39 39 39 38 38 37 35 34 33 32 31 30 28 27 26 26 26 26 27 28 29 30 31 32 32 32 32 32 32 32 33 34 34 35 35 35 35 35 35 35 35 35 35 35 35 35 34 34 33 32 31 30 29 28 27 27 27 27 27 27 26 25 25 25 25 25 24 23 22 22 22 22 22 23
37 37 38 38 38 39 39 39 39 39 39 39 39 39 38 38 38 37 36 35 34 33 32 31 30 29 28 27 26 26 26 27 28 29 30 31 31 31 31 31 31 32 33 33 34 35 35 35 35 35 35 35 35 36 36 36 36 36 35 34 33 32 31 30 29 28 27 27 26 26 26 25 25 24 24 23 24 24 23 23 22 22 22 23 23 23
36 37 37 38 38 38 39 39 39 39 39 39 39 39 38 38 37 37 36 35 34 33 32 31 30 29 29 28 28 27 27 28 28 29 29 29 30 30 30 30 31 32 32 33 33 34 35 35 36 35 35 35 35 36 37 37 37 36 35 34 33 31 30 29 29 28 28 27 26 25 25 24 23 23 22 22 22 22 23 23 23 22 22 23 23 23
36 36 37 37 38 38 39 39 39 39 39 39 39 39 38 38 37 37 36 35 34 33 32 31 30 30 29 29 29 29 29 29 30 30 30 29 29 29 29 30 30 31 32 32 33 33 34 35 36 36 36 36 36 37 37 37 37 37 36 35 33 32 30 29 28 28 28 27 26 26 25 24 23 22 22 21 21 21 21 22 22 23 23 23 23 23
36 36 37 37 38 38 39 39 39 39 39 39 39 39 38 38 37 37 36 35 34 33 32 31 30 30 30 29 30 30 30 31 31 31 31 30 30 29 29 29 30 30 31 31 32 32 33 34 35 36 37 37 38 38 38 38 38 37 37 35 34 32 31 30 29 28 27 27 26 26 25 25 24 23 22 21 20 20 20 21 21 22 22 22 23 23
36 36 37 37 38 38 39 39 39 39 39 39 39 39 38 38 37 36 35 35 34 33 32 31 31 30 30 30 30 30 31 31 31 32 32 31 31 31 30 30 30 30 30 31 31 31 31 32 33 36 37 38 39 39 39 38 38 37 37 36 35 33 32 31 29 29 28 27 27 26 26 25 25 24 24 22 21 21 20 20 21 21 21 21 21 22
36 37 37 38 38 38 39 39 39 39 39 39 39 39 38 37 37 36 35 34 34 33 32 32 31 31 30 31 31 31 32 32 32 32 32 32 32 32 32 32 32 32 32 31 31 30 30 30 31 33 36 38 39 39 39 39 38 37 37 36 35 34 33 31 30 30 29 28 28 27 26 26 25 25 24 24 23 22 21 21 21 21 20 20 20 20
36 36 37 37 38 38 39 39 39 39 40 40 39 39 38 37 36 36 35 34 33 33 32 32 31 31 31 31 31 32 32 32 32 33 33 33 33 34 34 34 35 35 34 34 33 32 31 30 30 31 33 36 38 39 40 40 39 38 37 36 36 35 33 32 31 30 30 29 29 28 27 27 26 26 26 25 24 23 22 22 21 21 20 19 18 17
Wind_Direction
338 339 340 340 341 341 341 342 342 342 342 342 342 342 342 342 342 342 342 342 342 342 342 342 342 341 341 340 340 339 339 338 338 338 339 339 340 340 340 339 337 336 334 333 333 333 334 335 336 337 338 339 340 341 341 342 342 342 342 342 342 341 341 341 341 340 339 339 337 336 334 332 331 329 328 326 325 324 323 323 322 322 322 321 319 311
339 340 341 342 342 342 342 342 342 343 342 342 342 343 343 343 343 343 342 342 342 342 342 342 342 341 341 340 340 339 338 338 338 338 338 339 340 340 340 340 338 337 335 334 333 333 333 333 334 335 336 337 338 340 341 341 342 342 342 342 341 341 341 340 340 340 339 338 337 335 334 332 331 330 329 328 326 325 325 325 325 325 325 324 321 309
341 342 342 343 343 343 343 343 343 343 343 343 343 343 343 343 343 343 343 343 342 342 342 342 342 341 341 340 340 339 338 338 338 338 338 339 340 340 341 341 340 339 337 335 334 333 332 332 333 334 335 336 337 339 340 341 341 341 341 341 341 341 340 340 339 338 338 337 336 335 334 333 332 331 330 329 329 328 328 328 328 329 329 329 327 315
343 343 344 344 344 344 344 344 344 343 343 343 343 343 343 343 343 343 343 343 343 342 342 342 342 341 341 340 340 339 338 338 337 337 338 338 340 341 342 342 342 342 340 338 336 334 333 332 332 333 333 335 336 337 339 340 340 341 341 341 340 340 339 338 337 337 336 335 335 334 334 333 333 332 331 331 330 330 330 331 332 332 334 336 336 330
345 345 345 344 345 344 344 345 344 344 344 343 343 343 343 343 343 343 343 343 343 343 342 342 342 341 341 340 339 339 338 337 337 336 337 338 339 341 342 343 344 344 343 341 339 337 335 333 332 332 333 334 335 336 338 339 340 340 340 340 339 339 338 337 336 335 335 334 334 334 334 333 333 333 333 332 332 331 331 332 333 334 336 339 341 340
346 346 345 345 345 345 345 345 344 344 344 344 343 343 343 343 343 343 343 343 343 342 342 342 342 341 341 340 339 338 337 337 336 336 336 338 339 341 343 344 345 346 346 345 343 340 338 335 333 332 332 333 334 335 337 338 339 340 340 340 339 338 337 336 335 334 334 333 333 333 333 333 333 333 333 332 331 331 331 330 331 332 333 335 337 337
346 346 346 346 345 345 345 345 344 344 344 343 343 343 343 343 343 343 343 343 342 342 342 342 341 341 340 340 339 338 337 336 335 335 336 338 340 342 343 344 346 347 348 348 346 344 341 338 335 333 333 332 333 334 336 337 338 339 339 339 338 338 336 335 334 333 333 332 332 332 333 332 333 332 332 330 329 328 328 327 327 327 328 329 329 329
347 346 346 346 346 345 345 344 344 344 343 343 343 343 343 343 343 343 343 343 342 342 341 341 340 340 340 339 339 337 336 335 335 335 336 338 340 342 343 344 345 347 348 349 348 347 344 341 337 335 333 333 333 334 335 336 337 338 339 339 338 337 336 335 333 332 332 332 331 331 331 331 331 330 329 327 326 324 322 321 321 321 322 322 323 323
347 347 346 346 346 345 345 344 344 344 344 343 343 343 343 343 342 342 342 342 342 341 341 340 340 339 339 339 339 338 337 336 336 336 337 339 341 343 343 344 344 346 347 349 349 348 346 343 340 337 334 333 333 334 334 335 336 337 338 338 338 337 336 335 333 332 331 331 330 330 329 329 328 327 326 323 321 319 317 315 314 314 315 315 316 316
348 347 347 346 346 346 345 345 344 344 343 343 343 343 343 342 342 341 341 341 341 341 340 340 340 339 339 339 339 339 339 338 337 337 338 340 342 343 343 343 343 344 346 347 349 349 348 345 342 339 336 334 334 334 334 335 335 336 337 337 337 337 336 335 333 332 331 330 329 328 327 326 324 323 321 319 317 314 312 310 309 309 309 309 309 310
348 347 347 347 346 346 345 345 345 344 344 343 342 342 342 342 341 341 341 341 341 341 341 340 340 339 339 339 339 339 339 339 339 339 339 341 342 343 342 341 341 342 344 346 348 349 348 347 344 341 338 336 335 334 334 334 335 335 335 336 336 337 336 335 334 332 330 328 327 325 324 322 320 319 317 315 312 310 308 306 305 304 304 304 304 305
348 348 347 347 347 346 345 345 344 344 344 343 342 341 341 341 341 342 341 341 341 341 341 340 340 340 340 339 339 339 340 341 340 340 340 340 341 341 341 340 340 340 342 345 347 348 349 348 346 343 341 338 336 335 334 334 334 334 334 335 335 336 336 336 334 332 329 326 324 322 320 318 317 315 313 311 309 307 305 303 301 300 300 300 300 301
348 348 348 347 347 346 345 345 344 343 343 343 342 342 341 342 342 342 342 342 341 341 341 341 340 340 340 340 340 340 341 342 342 341 340 339 340 340 340 340 340 340 341 344 346 348 349 348 347 345 342 340 338 336 335 334 333 333 333 333 334 335 336 335 334 332 328 325 322 320 318 315 314 312 310 309 306 304 302 300 299 298 297 297 297 298
348 348 348 347 347 346 346 345 344 344 343 343 343 343 343 343 343 342 342 341 341 341 341 341 341 341 340 340 340 340 341 343 343 342 340 339 339 339 340 340 340 340 341 343 345 347 348 348 348 346 344 341 339 337 335 334 333 333 332 333 333 334 335 335 334 332 329 325 321 318 315 313 311 310 308 307 305 303 301 300 298 297 296 296 296 297
349 348 348 348 347 347 346 345 345 345 344 344 344 344 344 343 343 342 342 341 341 341 341 341 341 341 341 341 341 341 341 342 343 342 340 339 338 339 340 340 340 339 340 342 344 347 348 348 348 347 345 343 341 338 337 335 334 333 333 332 333 333 333 333 333 331 329 325 321 317 314 311 309 308 307 305 304 303 301 300 298 298 297 297 297 298
349 349 348 348 348 347 347 346 346 346 345 345 345 344 344 343 343 342 342 342 341 341 341 341 341 341 342 342 342 342 342 342 342 342 340 339 339 339 340 340 340 340 340 342 344 346 347 348 348 347 346 344 342 340 338 337 335 334 333 333 332 332 332 332 331 330 328 325 321 317 313 310 308 307 306 305 304 303 302 301 300 299 299 299 299 299
350 349 349 348 348 348 348 347 347 346 346 346 345 344 344 344 343 343 342 342 342 342 342 342 342 342 342 343 343 343 343 343 343 342 341 340 340 340 341 341 341 341 341 342 343 345 347 348 348 348 347 346 344 342 341 339 337 336 335 334 333 332 331 331 330 329 327 325 321 317 314 311 308 307 306 305 304 303 302 301 301 300 300 300 300 301
350 350 349 349 349 349 348 348 347 347 346 346 345 345 344 344 344 343 343 343 343 344 344 344 344 344 344 344 345 344 344 343 343 343 342 342 341 341 342 342 342 341 341 342 343 344 346 347 348 349 348 348 346 345 343 341 340 338 337 335 334 332 331 330 329 328 326 324 321 318 314 311 309 307 305 304 304 303 302 301 301 301 300 300 301 301
350 350 350 350 349 349 349 348 348 347 346 346 346 345 345 344 344 344 344 344 345 345 345 345 345 345 346 346 346 345 344 344 344 344 344 343 342 342 342 343 343 342 342 342 343 344 346 347 348 349 349 349 348 347 346 344 342 341 339 337 335 334 332 330 329 327 325 323 321 318 315 312 309 307 305 304 303 302 302 301 300 300 300 300 300 301
351 351 351 350 350 350 349 348 348 348 347 346 346 345 345 345 345 345 345 346 346 347 347 347 347 347 347 347 347 346 345 344 344 345 345 344 343 342 343 345 345 344 343 343 344 345 346 347 348 349 350 350 349 349 348 346 345 343 341 339 337 335 333 332 330 328 326 324 321 319 316 313 310 308 305 304 303 302 301 300 300 300 299 300 300 300
351 351 351 351 351 350 349 349 348 347 347 346 346 345 345 345 346 346 347 347 348 348 349 349 349 348 348 348 347 346 345 345 345 345 345 344 343 343 345 346 347 346 345 345 345 345 346 347 348 349 349 350 350 349 349 348 347 346 344 342 340 338 336 334 332 330 328 325 323 320 317 314 311 309 306 304 303 301 300 300 299 299 299 299 299 300
352 352 352 352 352 351 350 349 348 347 347 346 346 346 346 346 347 347 348 349 349 350 351 351 350 350 349 348 347 347 346 346 345 345 344 344 344 345 346 348 349 348 347 346 346 346 346 347 348 348 349 349 349 349 350 349 349 348 347 345 343 341 339 337 335 333 331 329 326 324 321 318 314 311 309 306 304 302 301 300 299 299 299 299 299 300
353 353 353 352 351 351 350 349 348 347 347 347 347 347 347 348 348 349 349 349 350 351 351 352 351 350 349 348 347 347 346 346 345 345 345 346 346 347 348 350 351 351 350 349 348 348 347 347 347 347 348 348 349 349 349 349 349 349 348 347 346 344 343 341 339 337 335 333 330 328 325 322 320 317 314 311 308 306 304 302 301 300 299 299 299 300
354 353 353 352 351 350 350 349 348 348 348 348 348 348 348 349 349 349 350 350 350 350 351 351 351 350 349 348 348 348 348 347 346 346 346 348 349 349 350 351 352 353 353 351 350 349 348 347 347 347 347 347 348 349 349 349 349 349 348 347 347 346 344 343 342 340 338 336 334 332 330 327 325 322 319 316 314 311 309 306 304 303 302 301 301 300
354 353 353 352 351 350 350 349 349 349 349 349 349 349 349 349 349 350 350 349 349 349 349 350 350 350 349 349 349 349 349 349 348 348 348 350 351 351 351 352 353 354 355 354 352 351 349 348 347 347 347 348 348 349 349 348 348 348 347 346 346 345 344 343 342 341 340 338 337 335 333 331 329 326 324 321 318 316 313 311 309 307 305 303 302 302
354 353 353 352 351 351 350 350 350 350 350 350 350 350 350 349 349 349 349 348 347 347 347 348 349 350 350 350 351 351 352 352 351 351 351 351 352 352 352 352 353 354 355 355 354 352 351 349 349 349 349 349 349 349 349 348 347 346 345 345 344 343 343 342 341 340 339 338 337 336 334 332 331 328 326 324 322 319 317 314 312 310 308 306 305 303
354 353 353 352 352 351 351 351 351 351 351 350 350 350 350 349 349 348 347 346 346 347 347 348 348 350 351 352 353 353 354 355 355 355 354 353 352 352 352 353 353 354 355 357 356 354 352 351 351 351 351 351 351 350 349 348 346 345 344 343 342 342 341 341 340 339 338 337 336 335 334 332 331 329 327 325 323 320 318 316 315 313 311 309 307 305
354 353 353 353 352 352 352 351 351 351 351 350 350 350 349 349 348 347 346 346 347 347 348 348 349 350 351 353 354 355 356 357 358 358 357 355 354 353 353 353 353 353 355 357 358 357 355 354 353 353 353 352 351 350 349 347 346 344 343 342 341 340 340 339 338 338 337 336 335 335 333 332 330 328 326 324 322 321 319 317 316 314 313 311 309 307
354 354 354 353 353 352 352 351 351 351 350 350 350 349 349 348 348 347 347 347 348 348 348 348 349 350 351 353 354 356 357 358 359 359 359 356 355 354 353 353 353 353 354 356 358 359 358 357 355 354 354 353 351 350 349 347 346 344 343 342 341 340 339 338 338 337 336 336 335 334 333 332 330 328 326 324 322 321 319 318 317 316 315 313 311 309
354 354 354 353 353 352 352 351 351 351 350 350 350 349 348 348 347 347 347 348 348 348 349 349 349 350 351 352 354 356 357 358 359 360 359 358 356 355 354 354 353 353 354 354 355 358 360 360 358 356 354 353 351 350 349 348 346 345 344 342 341 340 339 339 338 337 336 336 335 335 333 332 330 328 327 325 323 322 321 320 319 318 317 316 314 312
355 355 354 353 353 352 352 351 351 351 350 350 350 349 349 348 348 348 348 348 348 348 349 349 350 351 351 352 353 355 356 357 359 360 360 358 357 355 355 354 354 354 354 354 354 355 357 359 360 358 355 353 352 351 349 348 347 346 345 344 343 342 340 340 339 338 337 337 337 336 335 334 332 330 329 327 326 325 324 323 322 322 321 320 318 316
355 355 354 354 353 352 352 351 351 351 351 350 350 349 349 348 348 348 348 348 349 349 349 349 350 351 352 353 354 355 356 356 358 359 359 358 357 356 356 355 355 355 355 355 355 355 355 357 358 358 357 355 353 351 350 349 348 347 346 345 344 343 342 341 340 340 339 339 339 339 338 337 335 334 332 331 329 328 327 327 326 326 325 324 323 320
355 355 354 354 353 353 352 352 351 351 351 351 350 350 349 349 349 349 349 349 349 349 349 349 350 351 352 354 355 355 355 356 357 357 358 358 358 357 356 356 355 356 356 356 356 355 355 356 356 357 357 356 354 352 351 350 348 347 346 345 344 343 343 342 342 341 341 341 341 341 341 340 339 338 336 335 333 332 332 331 331 331 330 329 328 326
355 355 355 354 354 353 353 352 352 351 351 351 351 350 350 350 349 349 349 349 348 348 349 349 350 350 351 353 354 355 355 355 356 356 357 357 358 358 357 356 356 355 355 355 356 356 356 356 356 356 356 356 354 353 352 351 350 348 346 345 344 344 343 343 342 342 343 343 343 344 344 343 342 341 340 339 338 337 337 336 336 336 336 335 333 332
355 355 355 354 354 353 353 352 352 352 352 352 351 351 351 350 350 350 349 349 348 348 348 349 349 350 351 352 353 354 355 355 355 355 356 357 358 358 357 357 356 355 355 355 355 356 356 356 356 355 355 355 355 354 353 352 351 349 347 346 344 343 343 343 343 343 343 344 345 345 345 345 345 344 343 343 342 342 342 342 342 341 341 339 338 337
355 355 355 354 354 354 354 353 353 353 352 352 352 352 352 352 351 351 350 349 349 348 348 348 349 350 351 352 353 354 354 354 354 355 356 357 357 358 357 357 356 355 354 354 355 355 356 356 356 355 355 354 354 354 353 353 352 351 349 347 345 344 343 343 343 343 344 345 346 346 346 346 346 346 346 346 346 346 346 347 346 346 345 344 342 341
355 355 355 355 355 355 354 354 354 354 353 353 353 353 353 353 353 352 351 350 350 349 349 349 349 350 351 351 352 353 353 353 354 355 355 356 357 357 357 356 356 355 354 354 354 354 355 355 355 356 355 355 354 354 353 353 353 352 351 349 347 345 344 343 343 343 344 345 346 346 346 346 346 347 347 348 349 350 350 350 350 350 349 347 346 344
355 355 355 355 355 355 355 355 355 355 355 355 355 355 355 354 354 353 352 351 351 351 350 350 350 351 351 351 351 352 352 353 354 354 355 355 356 356 356 356 356 355 354 354 353 353 354 354 354 355 356 356 355 355 354 353 353 353 352 351 349 347 345 344 344 344 345 345 346 346 346 346 346 347 348 349 351 352 353 353 353 353 351 350 348 346
355 355 356 356 356 356 356 356 355 356 356 356 356 356 356 356 355 354 353 353 352 352 352 352 352 351 351 351 351 351 352 353 353 354 354 354 355 355 355 356 356 355 355 354 353 353 353 353 353 354 355 355 356 355 355 354 353 353 353 352 351 349 347 346 345 345 345 345 345 345 345 346 346 347 348 349 352 353 355 355 356 355 354 352 350 347
355 356 356 356 356 356 356 356 356 356 357 357 357 357 357 357 356 355 355 354 354 353 353 353 353 353 352 352 351 351 352 352 353 353 354 354 354 354 355 355 356 355 355 354 353 353 353 353 353 353 354 355 355 356 356 355 354 354 353 353 353 352 350 349 347 347 346 345 345 345 345 346 347 347 348 350 352 354 355 356 357 356 355 353 351 349
356 356 357 357 357 357 357 357 357 357 357 358 358 358 358 357 357 356 356 356 355 355 355 355 355 355 354 353 352 352 352 352 353 353 353 354 354 354 355 355 355 355 355 354 354 353 352 352 352 353 354 354 355 356 356 356 356 356 355 355 355 355 354 352 350 348 347 346 345 345 346 347 348 349 349 350 352 354 356 356 356 356 355 354 352 350
357 357 357 357 357 357 357 357 358 358 358 358 358 358 358 358 358 358 358 357 357 357 357 357 357 357 356 355 354 353 353 352 353 353 353 354 354 355 355 355 355 355 355 355 354 353 352 352 352 353 353 354 355 356 357 357 358 358 358 358 357 357 356 354 352 351 349 348 347 347 347 348 349 350 350 351 352 354 356 356 356 355 354 353 352 350
357 357 357 358 358 358 358 358 358 358 358 359 359 359 359 359 359 359 359 359 359 358 359 359 359 359 358 357 356 355 354 353 353 353 354 354 355 356 356 356 356 356 356 355 354 353 352 352 352 352 353 354 355 356 357 358 359 0 0 360 359 358 357 356 355 353 352 350 349 349 349 350 352 352 351 351 352 354 355 356 356 355 353 352 350 349
357 358 358 358 358 358 358 358 359 359 359 359 359 359 359 360 360 0 0 360 360 360 360 360 0 0 0 360 358 357 356 355 355 355 355 355 356 356 357 357 357 357 356 356 355 354 353 352 352 353 353 354 355 357 358 359 1 2 2 2 1 360 359 357 356 355 355 353 352 352 352 353 354 354 353 352 352 353 354 355 355 354 352 351 349 347
358 358 358 358 358 358 358 359 359 359 360 0 0 0 0 1 1 1 1 1 1 1 1 0 1 1 1 1 1 360 359 358 357 357 357 357 357 358 358 358 358 358 358 357 356 354 353 352 352 353 354 355 356 358 359 0 1 2 3 3 2 2 0 359 358 357 357 356 356 356 356 356 357 357 356 354 352 352 353 353 353 353 351 349 347 346
358 358 358 358 358 359 359 359 359 360 0 1 1 1 1 2 2 2 2 2 2 1 1 1 1 1 1 1 1 1 0 359 359 359 359 359 359 360 360 360 0 0 0 359 358 356 354 352 352 352 354 355 357 359 360 1 1 2 3 3 3 3 2 1 360 359 359 359 359 359 359 359 360 360 359 357 355 353 352 352 351 351 350 348 346 345
358 358 359 359 359 359 359 360 0 0 1 1 2 2 2 3 3 3 3 2 2 2 2 2 2 2 2 2 2 1 1 0 360 0 1 1 1 2 2 2 2 2 2 1 360 358 355 353 352 353 354 355 357 359 1 1 1 1 2 3 3 4 4 3 2 2 2 2 2 2 1 1 1 2 2 1 358 355 353 351 350 350 349 348 346 345
358 359 359 359 360 360 360 360 0 1 1 2 2 3 3 3 3 3 3 3 3 3 3 3 3 2 2 2 2 1 1 0 0 1 1 2 3 3 3 4 4 4 3 2 1 0 358 356 354 353 354 355 357 359 0 1 1 1 1 2 3 4 5 5 5 5 5 5 5 5 4 3 3 3 3 3 2 359 356 353 352 351 350 349 347 346
359 359 360 360 0 0 0 0 1 1 2 2 3 4 4 4 4 4 4 4 3 3 3 4 4 3 3 2 2 1 1 1 1 1 2 2 3 3 3 4 4 4 4 3 3 2 1 359 357 355 355 356 357 358 359 0 1 1 1 2 3 4 5 6 6 6 7 8 8 8 7 6 5 4 4 4 3 2 359 357 355 355 353 352 350 348
359 360 0 0 1 1 1 1 1 2 2 3 4 4 4 4 4 4 4 4 4 4 4 4 4 4 3 3 2 2 2 2 2 2 2 2 2 2 3 3 3 3 4 3 3 3 4 4 2 359 357 356 356 357 358 358 360 1 2 2 3 3 4 6 7 8 8 9 9 10 10 9 8 6 4 4 4 4 3 1 0 359 358 356 354 351
360 0 1 1 1 1 1 1 2 2 3 3 4 4 4 4 4 4 4 5 5 5 5 5 4 4 3 3 2 2 2 2 3 3 3 2 2 2 2 2 2 2 2 2 2 2 3 5 7 6 3 359 357 356 356 357 358 0 2 3 3 3 4 6 7 8 9 9 9 10 11 11 10 8 7 5 4 4 5 4 4 3 2 1 359 356